Weather History for Thedford, NE

Change the Weather History Date:

Tuesday, September 24, 2013

  Actual Average (KLBF) Record (KLBF)
Temperature  
Mean Temperature 62 °F 58 °F  
Max Temperature 75 °F 74 °F 92 °F (1990)
Min Temperature 49 °F 43 °F 26 °F (1965)
Degree Days  
Heating Degree Days 3 8  
Month to date heating degree days 99  
Since 1 July heating degree days 119  
Cooling Degree Days 0 1  
Month to date cooling degree days 66  
Year to date cooling degree days 761  
Growing Degree Days 12 (Base 50)    
Moisture  
Dew Point 43 °F    
Average Humidity 57    
Maximum Humidity 91    
Minimum Humidity 22    
Precipitation  
Precipitation 0.00 in 0.05 in 0.94 in (1886)
Month to date precipitation 1.13  
Year to date precipitation 17.35  
Snow  
Snow 0.00 in 0.00 in 2.40 in (2000)
Month to date snowfall 0.1  
Since 1 July snowfall 0.1  
Since 1 September snowfall 0.1  
Snow Depth -    
Sea Level Pressure  
Sea Level Pressure 29.97 in    
Wind  
Wind Speed 10 mph (North)    
Max Wind Speed 15 mph    
Max Gust Speed 24 mph    
Visibility 10 miles    
Events      
T = Trace of Precipitation, MM = Missing Value Source: NWS Daily Summary

Daily Weather History Graph

Daily Weather History Graph

Search for Another Location

Airport:

Trip Planner

Search our weather history database for the weather conditions in past years. The results will help you decide how hot, cold, wet, or windy it might be!

Date:

Astronomy

Sep. 24, 2013 Rise Set
Actual Time 7:32 AM CDT 7:35 PM CDT
Civil Twilight 7:04 AM CDT 8:03 PM CDT
Nautical Twilight 6:31 AM CDT 8:35 PM CDT
Astronomical Twilight 5:58 AM CDT 9:08 PM CDT
Moon 10:49 PM CDT (9/24) 12:53 PM CDT (9/24)
Length of Visible Light 12h 59m
Length of Day
12h 03m
Waning Gibbous, 73% of the Moon is Illuminated
Sep 24
Waning Gibbous
Sep 26
Last Quarter
Oct 4
New
Oct 11
First Quarter
Oct 18
Full

Hourly Weather History & Observations

Time (CDT) Temp. Dew Point Humidity Pressure Visibility Wind Dir Wind Speed Gust Speed Precip Events Conditions
12:15 AM 57.4 °F 50.9 °F 79% 29.88 in 10.0 mi North 13.8 mph - N/A   Overcast
12:35 AM 57.2 °F 50.7 °F 79% 29.89 in 10.0 mi North 10.4 mph 20.7 mph N/A   Overcast
12:55 AM 57.2 °F 50.9 °F 79% 29.89 in 10.0 mi NNW 13.8 mph 24.2 mph N/A   Overcast
1:15 AM 56.8 °F 50.9 °F 80% 29.89 in 10.0 mi NNW 11.5 mph - N/A   Overcast
1:35 AM 57.0 °F 50.2 °F 78% 29.90 in 10.0 mi NNW 11.5 mph - N/A   Overcast
1:55 AM 56.7 °F 50.0 °F 78% 29.90 in 10.0 mi NNW 13.8 mph - N/A   Overcast
2:35 AM 55.0 °F 49.1 °F 80% 29.92 in 10.0 mi NW 12.7 mph - N/A   Overcast
2:55 AM 54.5 °F 49.1 °F 82% 29.93 in 10.0 mi NW 15.0 mph 18.4 mph N/A   Overcast
3:15 AM 53.4 °F 48.9 °F 85% 29.93 in 10.0 mi NNW 11.5 mph 18.4 mph N/A   Scattered Clouds
3:35 AM 52.9 °F 49.1 °F 87% 29.93 in 10.0 mi NW 10.4 mph - N/A   Clear
3:55 AM 52.2 °F 48.6 °F 88% 29.93 in 10.0 mi NW 10.4 mph - N/A   Clear
4:35 AM 51.4 °F 48.2 °F 89% 29.95 in 10.0 mi NW 10.4 mph - N/A   Clear
4:55 AM 51.8 °F 48.4 °F 88% 29.95 in 10.0 mi NW 12.7 mph 17.3 mph N/A   Clear
5:15 AM 51.1 °F 47.8 °F 89% 29.96 in 10.0 mi NW 8.1 mph - N/A   Clear
5:35 AM 50.4 °F 47.3 °F 89% 29.96 in 10.0 mi NW 9.2 mph - N/A   Clear
5:55 AM 50.0 °F 46.9 °F 89% 29.97 in 10.0 mi NW 9.2 mph - N/A   Clear
6:15 AM 50.0 °F 47.3 °F 90% 29.97 in 10.0 mi NW 6.9 mph - N/A   Clear
6:35 AM 50.2 °F 47.3 °F 90% 29.98 in 10.0 mi NW 6.9 mph - N/A   Clear
6:55 AM 50.7 °F 47.7 °F 89% 29.99 in 10.0 mi WNW 8.1 mph - N/A   Clear
7:15 AM 49.5 °F 46.6 °F 90% 29.99 in 10.0 mi WNW 9.2 mph - N/A   Clear
7:35 AM 49.1 °F 46.4 °F 90% 30.01 in 10.0 mi WNW 9.2 mph - N/A   Clear
7:55 AM 49.3 °F 46.8 °F 91% 30.01 in 10.0 mi WNW 11.5 mph - N/A   Clear
8:15 AM 50.0 °F 47.3 °F 90% 30.02 in 10.0 mi WNW 12.7 mph - N/A   Clear
8:35 AM 50.9 °F 47.7 °F 89% 30.02 in 10.0 mi WNW 10.4 mph - N/A   Clear
8:55 AM 52.9 °F 48.6 °F 85% 30.03 in 10.0 mi NW 10.4 mph - N/A   Clear
9:15 AM 55.0 °F 49.3 °F 81% 30.03 in 10.0 mi NW 11.5 mph 16.1 mph N/A   Clear
9:35 AM 57.4 °F 50.0 °F 76% 30.03 in 10.0 mi NNW 10.4 mph 16.1 mph N/A   Clear
9:55 AM 59.9 °F 50.9 °F 72% 30.04 in 10.0 mi NW 10.4 mph - N/A   Clear
10:15 AM 61.2 °F 50.0 °F 67% 30.04 in 10.0 mi NNW 9.2 mph - N/A   Clear
10:35 AM 63.9 °F 48.9 °F 58% 30.04 in 10.0 mi North 12.7 mph - N/A   Clear
10:55 AM 65.7 °F 47.3 °F 51% 30.04 in 10.0 mi NNW 9.2 mph 18.4 mph N/A   Clear
11:15 AM 67.5 °F 45.9 °F 46% 30.04 in 10.0 mi North 10.4 mph - N/A   Clear
11:35 AM 68.5 °F 45.3 °F 43% 30.04 in 10.0 mi NNW 10.4 mph 16.1 mph N/A   Clear
11:55 AM 69.8 °F 40.6 °F 35% 30.04 in 10.0 mi North 10.4 mph 23.0 mph N/A   Clear
12:55 PM 72.3 °F 36.9 °F 27% 30.04 in 10.0 mi North 10.4 mph - N/A   Clear
1:15 PM 73.0 °F 35.4 °F 25% 30.03 in 10.0 mi North 11.5 mph 20.7 mph N/A   Clear
1:35 PM 73.6 °F 35.1 °F 25% 30.03 in 10.0 mi North 12.7 mph 18.4 mph N/A   Clear
1:55 PM 74.3 °F 34.9 °F 24% 30.03 in 10.0 mi North 15.0 mph 19.6 mph N/A   Clear
2:15 PM 74.1 °F 35.4 °F 24% 30.02 in 10.0 mi North 13.8 mph 19.6 mph N/A   Clear
2:35 PM 74.3 °F 36.5 °F 25% 30.01 in 10.0 mi North 6.9 mph 17.3 mph N/A   Clear
2:55 PM 74.5 °F 35.8 °F 24% 30.01 in 10.0 mi North 11.5 mph - N/A   Clear
3:15 PM 75.0 °F 35.4 °F 24% 29.99 in 10.0 mi NNE 11.5 mph 16.1 mph N/A   Clear
3:35 PM 75.2 °F 35.2 °F 23% 29.99 in 10.0 mi NNE 9.2 mph - N/A   Clear
3:55 PM 75.2 °F 36.0 °F 24% 29.98 in 10.0 mi NNE 5.8 mph 17.3 mph N/A   Clear
4:15 PM 75.0 °F 34.5 °F 23% 29.98 in 7.0 mi NNE 9.2 mph - N/A   Clear
4:35 PM 75.4 °F 33.4 °F 22% 29.98 in 10.0 mi North 5.8 mph - N/A   Clear
4:55 PM 75.2 °F 34.3 °F 23% 29.98 in 10.0 mi NE 8.1 mph - N/A   Clear
5:15 PM 75.2 °F 33.4 °F 22% 29.98 in 10.0 mi North 5.8 mph - N/A   Clear
5:35 PM 74.5 °F 33.3 °F 22% 29.98 in 10.0 mi North 4.6 mph - N/A   Clear
5:55 PM 74.3 °F 34.5 °F 23% 29.97 in 10.0 mi East 5.8 mph - N/A   Clear
6:15 PM 73.6 °F 36.3 °F 26% 29.97 in 10.0 mi NE 6.9 mph - N/A   Clear
6:35 PM 72.7 °F 35.6 °F 26% 29.96 in 10.0 mi ENE 3.5 mph - N/A   Clear
6:55 PM 71.2 °F 36.0 °F 27% 29.96 in 10.0 mi East 4.6 mph - N/A   Clear
7:15 PM 68.9 °F 36.7 °F 31% 29.96 in 10.0 mi East 4.6 mph - N/A   Clear
7:35 PM 64.8 °F 37.6 °F 37% 29.96 in 10.0 mi East 3.5 mph - N/A   Clear
7:55 PM 63.5 °F 37.6 °F 38% 29.95 in 10.0 mi ESE 3.5 mph - N/A   Clear
8:15 PM 62.8 °F 37.9 °F 40% 29.95 in 10.0 mi SE 4.6 mph - N/A   Clear
8:35 PM 60.8 °F 38.3 °F 43% 29.95 in 10.0 mi SE 4.6 mph - N/A   Clear
8:55 PM 59.2 °F 38.7 °F 47% 29.95 in 10.0 mi SSE 4.6 mph - N/A   Clear
9:15 PM 58.8 °F 38.3 °F 47% 29.95 in 10.0 mi SSE 4.6 mph - N/A   Clear
9:35 PM 57.7 °F 37.9 °F 48% 29.96 in 10.0 mi SSE 5.8 mph - N/A   Clear
9:55 PM 56.8 °F 38.3 °F 50% 29.95 in 10.0 mi SE 5.8 mph - N/A   Clear
10:15 PM 56.5 °F 40.3 °F 55% 29.95 in 10.0 mi SE 6.9 mph - N/A   Clear
10:35 PM 53.8 °F 41.0 °F 62% 29.96 in 10.0 mi SSE 5.8 mph - N/A   Clear
10:55 PM 52.5 °F 41.2 °F 65% 29.94 in 10.0 mi SE 6.9 mph - N/A   Clear
11:15 PM 53.6 °F 42.4 °F 66% 29.94 in 10.0 mi SSE 6.9 mph - N/A   Clear
11:35 PM 52.7 °F 42.8 °F 69% 29.95 in 10.0 mi SSE 6.9 mph - N/A   Clear
11:55 PM 52.3 °F 43.0 °F 70% 29.94 in 10.0 mi SSE 6.9 mph - N/A   Clear